Lid_Strength_Index
-0 -1 -1 -1 -1 -1 -2 -2 -2 -1 -1 -1 -1 -1 -1 -1 -1 -0 1 -1 3 6 5 4 4 6 6 7 9 7 9 8 9 13 13 13 14 11 13 11 12 14 15 13 13 15 16 8 7 10 10 8 7 7
-0 -0 -0 -0 -1 -1 -2 -2 -2 -2 -2 -1 -1 -1 -1 -1 -1 -1 2 -1 -0 4 5 2 2 2 3 4 6 6 8 8 8 11 11 11 13 12 13 16 9 13 11 14 12 13 9 7 8 7 6 7 7 7
0 0 0 -0 -1 -1 -1 -2 -1 -1 -1 -1 -1 -1 -1 -1 -1 -1 1 1 2 5 5 5 5 2 1 2 2 7 7 6 6 5 9 10 13 11 14 14 12 10 9 12 11 9 8 7 7 6 6 7 6 6
0 0 -0 -0 -1 -1 -1 -1 -1 -1 -1 -0 -0 -0 -0 -0 -0 0 1 0 2 5 9 7 2 3 1 2 2 4 5 5 5 6 9 10 12 9 12 11 12 10 10 11 11 10 8 7 7 6 6 5 5 5
0 -0 -0 -0 -0 -1 -1 -1 -1 -1 -1 -0 -0 -0 0 0 -0 0 1 1 1 5 9 7 5 3 2 3 4 4 5 6 6 8 9 10 9 10 9 10 12 9 11 12 13 9 9 9 8 5 6 6 5 6
1 0 -0 -0 -0 -0 -0 -0 -0 -0 -0 -0 -0 -0 -0 0 0 3 5 1 0 2 7 10 5 5 3 3 3 4 4 5 6 8 9 8 7 9 12 13 9 8 7 7 9 7 7 7 7 7 6 7 6 6
1 1 1 0 0 0 0 0 0 0 0 0 -0 -0 -0 0 2 4 6 3 2 3 7 10 10 5 4 4 4 5 4 5 6 8 10 10 9 8 11 13 9 7 7 6 6 6 8 7 7 5 6 6 5 5
1 1 1 1 1 0 1 1 1 1 1 1 1 1 1 1 2 4 3 2 3 5 7 11 10 8 4 7 7 5 7 6 7 8 8 9 8 9 12 9 8 7 7 6 6 5 6 5 5 5 5 6 6 5
1 1 1 1 1 1 1 1 1 2 2 1 1 1 2 4 5 3 2 3 3 6 10 10 12 12 5 7 6 6 6 10 7 10 9 9 10 13 10 9 8 7 7 7 6 5 5 6 6 5 5 6 6 6
1 1 1 1 1 1 1 1 1 2 2 2 2 3 6 3 1 2 5 7 7 7 9 12 9 11 7 8 8 9 8 10 12 11 8 11 11 8 7 7 6 6 6 6 7 8 7 6 6 6 5 5 5 5
1 1 1 1 1 1 1 1 1 1 2 2 5 5 4 1 3 5 8 10 9 11 10 10 8 10 6 10 10 7 10 10 15 12 11 12 12 9 6 6 5 6 5 6 6 5 5 5 5 5 5 5 4 4
1 1 1 2 1 1 1 1 1 1 2 4 4 3 3 4 7 10 10 9 10 11 8 9 8 7 7 6 9 9 11 10 14 9 12 14 11 7 7 6 6 5 5 5 5 6 5 4 4 4 4 5 4 4
1 1 2 2 2 1 1 1 1 1 1 1 3 5 6 7 12 13 14 12 11 8 8 8 9 7 7 7 9 10 12 13 9 12 14 12 8 7 6 6 5 5 5 5 4 4 4 4 4 4 4 4 4 4
1 1 2 2 2 1 1 1 1 2 2 5 7 11 10 11 10 10 10 10 7 7 7 7 9 9 8 9 9 12 11 10 14 15 14 10 8 7 6 5 5 5 5 5 4 4 4 4 4 4 3 3 4 4
2 2 2 1 1 1 2 1 2 1 3 6 6 12 9 7 6 6 6 7 6 6 7 7 8 8 9 10 9 10 12 14 13 14 11 8 7 6 6 5 5 5 5 4 4 4 4 4 4 4 3 3 3 3
2 2 0 1 1 1 2 1 -0 1 3 4 5 8 6 7 7 7 6 6 4 5 5 6 9 10 11 11 12 13 14 14 12 9 7 6 6 6 5 5 5 4 4 4 4 4 4 4 4 4 4 3 3 3
2 2 0 1 1 1 1 1 1 3 4 5 6 5 6 7 7 6 5 5 4 5 8 8 11 12 9 12 13 11 12 10 8 7 6 6 6 5 5 4 4 4 4 4 4 4 4 4 3 4 4 4 3 3
2 0 1 1 1 1 1 1 3 4 6 5 7 6 5 5 6 6 5 4 5 6 6 8 7 10 12 13 12 10 8 7 6 6 5 5 4 4 4 5 4 4 4 4 4 3 4 3 4 5 3 3 4 3
2 2 2 2 2 3 3 2 2 6 5 5 5 4 5 5 4 4 4 4 4 4 5 7 9 11 11 8 8 7 7 6 7 6 5 4 4 4 4 4 4 4 4 3 3 4 4 4 5 4 5 4 4 4
3 2 2 2 2 3 4 4 1 4 7 6 4 5 5 6 4 4 4 4 5 5 7 9 9 8 7 6 5 5 5 4 5 6 6 5 4 3 4 4 4 3 3 3 4 5 4 5 5 5 5 5 5 5
1 -0 1 1 1 2 3 4 5 4 5 7 5 5 6 5 6 6 6 4 6 7 8 6 6 5 4 4 5 5 4 4 5 5 5 5 4 3 3 3 3 3 4 4 5 5 5 5 5 5 5 5 4 4
0 1 1 -0 2 3 4 2 4 3 5 6 6 6 7 7 7 6 5 6 7 6 5 5 5 4 4 4 5 4 4 3 3 4 5 3 4 4 4 3 3 4 4 5 5 5 5 4 5 4 4 4 4 4
1 1 2 2 5 6 7 2 5 5 7 6 6 7 7 7 6 4 7 6 6 4 4 4 3 3 3 3 3 4 4 4 4 4 4 4 3 3 3 4 4 5 5 5 4 5 5 5 5 4 4 4 4 5
3 3 5 6 6 8 4 6 5 6 6 7 7 9 8 7 5 7 8 7 5 3 4 4 3 4 4 3 5 6 6 6 6 5 5 5 5 5 5 6 6 6 6 6 6 6 5 5 6 5 5 6 6 6
7 7 6 11 6 6 7 7 6 7 8 7 9 8 9 7 9 9 9 7 5 4 4 4 4 4 5 5 6 6 6 6 7 7 6 5 6 6 6 6 7 7 6 6 6 6 5 5 6 6 6 5 6 6
11 6 9 6 7 8 8 9 8 8 7 8 7 7 6 8 9 10 8 6 5 4 4 4 4 4 5 5 6 6 6 6 6 7 7 6 6 7 7 8 8 8 6 6 6 7 7 7 7 7 7 7 7 7
10 8 6 3 6 6 7 6 6 6 7 8 7 7 8 10 10 8 4 4 4 2 1 2 3 4 5 5 5 5 5 5 6 7 6 6 6 6 6 7 7 6 5 5 5 5 6 7 7 7 7 7 7 7
7 6 8 6 6 5 7 7 7 7 7 5 6 9 9 9 9 5 4 2 2 1 1 1 1 3 4 4 4 5 5 5 5 6 6 6 6 6 5 5 5 6 5 5 5 5 6 6 6 6 6 6 7 6
7 5 6 7 5 5 6 6 6 5 4 5 7 8 7 5 3 3 2 2 1 2 3 4 4 4 4 4 5 5 5 6 8 9 10 9 8 7 6 6 6 6 6 5 6 6 5 5 6 6 6 6 6 6
6 4 6 6 7 7 5 4 5 3 3 3 3 4 4 3 2 1 2 2 3 4 4 4 4 5 6 6 6 6 6 6 7 9 10 10 9 7 6 6 6 6 6 6 6 6 6 6 6 6 6 7 7 7
4 5 5 5 6 5 4 3 3 3 3 3 3 5 5 4 2 1 1 2 3 3 4 4 5 5 6 6 6 7 8 7 7 7 8 8 7 7 7 7 6 6 6 6 6 7 7 7 7 7 7 7 7 7
4 4 5 6 6 4 3 4 4 5 4 5 5 4 4 5 6 3 2 3 4 5 5 5 5 5 5 5 5 5 6 6 7 7 7 7 7 7 7 7 7 6 7 6 7 7 7 7 7 7 7 7 7 7
4 4 4 4 5 6 5 5 6 6 5 6 5 5 5 5 6 4 2 2 4 5 5 5 4 4 4 5 5 5 6 6 7 8 9 9 9 9 8 7 7 7 7 7 7 7 7 7 7 7 7 7 7 6